SCP
0 0 0 0 0 0 0 0 0 0 0 0 0 0 0 0 0 0 0 0 0 0 0 0 0 0 0 0 0 0 0 0 0 0 0 0 0 0 0 0 0 0 0
0 0 0 0 0 0 0 0 0 0 0 0 0 0 0 0 0 0 0 0 0 0 0 0 0 0 0 0 0 0 0 0 0 0 0 0 0 0 0 0 0 0 0
0 0 0 0 0 0 0 0 0 0 0 0 0 0 0 0 0 0 0 0 0 0 0 0 0 0 0 0 0 0 0 0 0 0 0 0 0 0 0 0 0 0 0
0 0 0 0 0 0 0 0 0 0 0 0 0 0 0 0 0 0 0 0 0 0 0 0 0 0 0 0 0 0 0 0 0 0 0 0 0 0 0 0 0 0 0
0 0 0 0 0 0 0 0 0 0 0 0 0 0 0 0 0 0 0 0 0 0 0 0 0 0 0 0 0 0 0 0 0 0 0 0 0 0 0 0 0 0 0
0 0 0 0 0 0 0 0 0 0 0 0 0 0 0 0 0 0 0 0 0 0 0 0 0 0 0 0 0 0 0 0 0 0 0 0 0 0 0 0 0 0 0
0 0 0 0 0 0 0 0 0 0 0 0 0 0 0 0 0 0 0 0 0 0 0 0 0 0 0 0 0 0 0 0 0 0 0 0 0 0 0 0 0 0 0
0 0 0 0 0 0 0 0 0 0 0 0 0 0 0 0 0 0 0 0 0 0 0 0 0 0 0 0 0 0 0 0 0 0 0 0 0 0 0 0 0 0 0
0 0 0 0 0 0 0 0 0 0 0 0 0 0 0 0 0 0 0 0 0 0 0 0 0 0 0 0 0 0 0 0 0 0 0 0 0 0 0 0 0 0 0
0 0 0 0 0 0 0 0 0 0 0 0 0 0 0 0 0 0 0 0 -0 0 0 0 0 0 0 0 0 0 0 0 0 0 0 0 0 0 0 0 0 0 0
0 0 0 0 0 0 0 0 0 0 0 0 0 0 0 0 0 0 0 0 0 0 0 0 0 0 0 0 0 0 0 0 0 0 0 0 0 0 0 0 0 0 0
0 0 0 0 0 0 0 0 0 0 0 0 0 0 0 0 0 0 0 0 0 0 0 0 0 0 0 0 0 0 0 0 0 0 0 0 0 0 0 0 0 0 0
0 0 0 0 0 0 0 0 0 0 0 0 0 0 0 0 0 0 0 0 0 0 0 0 0 0 0 0 0 0 0 0 0 0 0 0 0 0 0 0 0 0 0
0 0 0 0 0 0 0 0 0 0 0 0 0 0 0 0 0 0 0 0 0 0 0 0 0 0 0 0 0 0 0 0 0 0 0 0 0 0 0 0 0 0 0
0 0 0 0 0 0 0 0 0 0 0 0 0 0 0 0 0 0 0 0 0 0 0 0 0 0 0 0 0 0 0 0 0 0 0 0 0 0 0 0 0 0 0
0 0 0 0 0 0 0 0 0 0 0 0 0 0 0 0 0 0 0 0 0 0 0 0 0 0 0 0 0 0 0 0 0 0 0 0 0 0 0 0 0 0 0
0 0 0 0 0 0 0 0 0 0 0 0 0 0 0 0 0 0 0 0 0 0 0 0 0 0 0 0 0 0 0 0 0 0 0 0 0 0 0 0 0 0 0
0 0 0 0 0 0 0 0 0 0 0 0 0 0 0 0 0 0 0 0 0 0 0 0 0 0 0 0 0 0 0 0 0 0 0 0 0 0 0 0 0 0 0
0 0 0 0 0 0 0 0 0 0 0 0 0 0 0 0 0 0 0 0 0 0 0 0 0 0 0 0 0 0 0 0 0 0 0 0 0 0 0 0 0 0 0
0 0 0 0 0 0 0 0 0 0 0 0 0 0 0 0 0 0 0 0 0 0 0 0 0 0 0 0 0 0 0 0 0 0 0 0 0 0 0 0 0 0 0
0 0 0 0 0 0 0 0 0 0 0 0 0 0 0 0 0 0 0 0 0 0 0 0 0 0 0 0 0 0 0 0 0 0 0 0 0 0 0 0 0 0 0
0 0 0 0 0 0 0 0 0 0 0 0 0 0 0 0 0 0 0 0 0 0 0 0 0 0 0 0 0 0 0 0 0 0 0 0 0 0 0 0 0 0 0
0 0 0 0 0 0 0 0 0 0 0 0 0 0 0 0 0 0 0 0 0 0 0 0 0 0 0 0 0 0 0 0 0 0 0 0 0 0 0 0 0 0 0
0 0 0 0 0 0 0 0 0 0 0 0 0 0 0 0 0 0 0 0 0 0 0 0 0 0 0 0 0 0 0 0 0 0 0 0 0 0 0 0 0 0 0
0 0 0 0 0 0 0 0 0 0 0 0 0 0 0 0 0 0 0 0 0 0 0 0 0 0 0 0 0 0 0 0 0 0 0 0 0 0 0 0 0 0 0
0 0 0 0 0 0 0 0 0 0 0 0 0 0 0 0 0 0 0 0 0 0 0 0 0 0 0 0 0 0 0 0 0 0 0 0 0 0 0 0 0 0 0
Wind_Speed
9 9 10 10 11 11 11 12 12 12 13 13 14 13 13 13 11 11 12 13 13 13 12 11 11 10 8 7 8 8 9 9 12 11 8 9 10 9 8 7 8 7 6
9 10 11 11 12 12 12 13 13 13 13 14 14 14 14 14 12 12 13 13 13 13 12 11 11 9 9 8 8 9 9 9 10 13 9 7 9 8 7 8 8 7 5
10 11 11 12 12 12 13 13 13 13 13 14 14 14 15 14 14 13 13 13 13 11 10 10 9 9 9 8 8 8 7 8 8 10 9 6 6 6 6 7 8 6 5
11 11 11 12 12 12 13 13 13 13 13 13 14 15 15 15 15 13 12 11 9 7 7 8 8 9 9 9 7 8 8 8 7 7 7 5 5 4 4 4 5 4 3
11 11 12 12 12 12 12 12 12 12 14 14 15 16 16 14 11 10 8 6 6 7 8 8 9 12 16 13 10 9 9 7 6 6 5 5 3 2 3 3 5 3 2
10 11 12 12 12 12 11 11 12 13 13 14 14 16 17 14 18 19 13 9 8 9 9 9 10 11 16 19 21 19 17 11 9 6 5 5 4 3 3 3 3 3 2
9 10 11 11 12 11 12 12 12 12 12 13 14 15 17 20 25 23 23 12 10 10 10 9 9 12 13 9 15 18 17 20 18 10 8 8 7 6 5 4 3 3 3
9 10 10 10 11 11 10 11 10 9 10 10 11 14 15 20 26 24 22 13 11 12 11 11 10 11 13 13 11 11 11 12 15 10 9 8 8 8 6 5 4 3 1
9 10 10 10 10 10 10 10 8 8 8 9 11 12 14 17 25 23 19 9 10 11 12 14 14 11 23 23 14 12 11 12 16 20 19 17 18 18 12 4 3 4 3
10 10 10 10 10 9 10 9 7 7 9 10 11 11 12 12 23 24 18 8 10 9 10 12 19 21 25 24 13 12 13 12 13 13 14 15 13 14 17 7 4 2 2
9 9 9 9 9 8 8 7 8 9 9 9 9 10 10 14 19 25 22 8 9 9 9 9 11 24 24 25 20 14 18 14 11 11 10 11 11 10 10 9 6 3 0
8 8 8 8 8 9 8 8 7 7 6 7 7 8 8 10 16 19 24 20 16 10 9 8 11 23 23 24 19 22 24 18 10 10 10 11 11 11 11 10 9 7 5
7 8 7 8 7 7 7 7 7 6 5 5 5 7 7 8 9 18 20 21 20 10 9 18 20 22 20 16 23 25 19 12 11 11 11 11 10 11 10 9 9 7 9
7 7 7 6 7 6 6 6 6 6 5 5 6 6 6 7 6 5 5 7 12 11 8 13 18 20 17 18 18 15 12 12 12 10 10 10 10 10 10 10 9 8 7
6 7 7 7 6 6 6 6 7 5 9 7 4 4 5 5 9 14 9 6 4 8 7 7 8 9 10 10 10 11 11 11 11 11 11 11 11 11 11 10 10 9 8
6 6 5 5 5 6 6 7 12 13 16 16 15 12 9 12 15 14 13 13 14 15 9 6 7 8 9 9 10 10 10 11 11 10 10 10 11 11 11 10 9 10 10
5 6 5 5 5 6 6 7 8 11 15 15 16 16 14 15 15 14 12 11 12 11 5 4 4 5 6 6 6 7 8 8 8 9 9 10 10 10 10 10 10 9 10
5 7 7 4 5 5 6 6 6 8 9 8 11 15 16 15 15 14 13 8 5 5 2 2 3 4 4 4 5 5 6 6 7 7 8 8 9 9 9 10 10 11 10
5 5 5 4 4 5 5 6 6 7 8 8 8 9 14 14 13 13 11 3 4 4 3 3 3 3 3 3 3 4 4 5 5 5 6 7 7 8 8 9 9 14 12
4 10 8 5 5 6 6 6 6 7 8 8 8 8 8 7 5 7 6 5 4 4 4 4 3 3 2 2 2 3 3 3 4 4 5 5 6 6 7 8 8 8 8
4 6 10 6 4 5 5 5 6 7 7 8 8 11 17 8 7 8 7 6 6 6 5 5 4 4 3 2 2 2 2 2 2 3 3 4 4 5 5 5 7 7 7
3 3 4 4 5 5 5 5 6 7 8 9 8 10 18 10 8 8 7 7 7 6 6 5 5 4 4 4 4 3 2 2 2 1 2 2 3 3 4 4 5 6 6
3 4 4 4 4 8 7 5 6 7 8 8 9 9 10 9 10 10 10 9 8 7 6 6 6 6 5 5 5 5 4 4 3 3 1 0 1 2 2 3 4 5 5
2 3 4 4 5 5 6 6 6 8 9 9 9 9 10 10 10 12 11 10 10 8 7 6 7 9 10 8 6 6 5 5 4 4 4 3 1 0 1 2 2 3 3
1 2 3 4 4 5 6 6 7 8 8 9 9 10 10 11 11 12 11 11 12 11 11 9 7 9 12 13 10 8 12 14 11 7 5 4 3 2 2 1 1 1 2
1 2 2 3 3 4 5 6 7 8 8 8 9 10 10 11 11 12 12 12 13 13 12 9 9 11 12 11 13 16 18 18 16 15 8 5 5 4 3 2 2 2 2
Wind_Direction
334 330 327 323 322 320 319 317 316 314 316 317 317 315 313 310 309 307 305 304 304 304 302 300 298 295 293 290 285 278 273 272 276 283 283 288 291 296 303 306 301 288 265
330 328 326 322 321 320 318 317 316 316 316 316 316 314 313 313 309 306 304 306 303 302 303 301 301 300 300 295 289 284 280 276 276 282 284 281 282 286 294 299 299 291 268
332 331 326 324 323 322 320 319 320 320 319 319 319 317 315 313 310 304 299 298 297 299 303 306 311 312 312 310 304 300 295 289 279 277 280 274 273 276 280 286 288 288 274
335 331 329 327 326 324 322 323 324 325 326 327 325 322 319 315 308 301 296 297 304 315 327 333 337 339 337 331 326 324 316 306 296 287 281 273 264 263 261 266 275 275 270
333 333 331 328 327 327 328 329 331 334 338 334 333 330 328 325 321 318 322 345 355 357 353 348 349 3 3 2 1 355 346 336 325 309 295 284 274 259 249 257 260 266 284
331 330 329 333 333 333 335 338 340 341 339 339 338 337 339 339 355 17 31 29 19 9 0 353 354 9 14 10 10 11 9 3 356 347 331 319 313 306 288 263 245 227 231
329 328 332 334 335 336 340 343 342 340 340 341 339 343 346 352 12 30 38 31 20 14 6 1 5 7 21 9 5 10 8 9 13 7 352 346 340 335 313 276 246 224 218
329 331 334 337 336 337 340 342 339 336 340 339 338 345 349 354 15 33 32 24 19 15 8 3 6 2 17 23 6 6 7 4 5 6 1 352 345 340 316 286 276 260 248
336 337 337 338 339 341 345 342 336 334 337 341 344 346 350 351 11 30 34 12 16 12 10 8 10 10 16 23 13 5 7 3 2 7 9 8 5 1 2 329 272 213 180
339 336 336 341 339 340 341 336 334 334 344 346 346 348 349 349 7 24 39 21 15 9 7 3 7 16 15 21 17 6 11 3 356 356 2 4 2 359 6 3 330 263 166
332 334 338 340 336 342 337 332 333 341 342 341 343 344 347 358 6 18 31 37 21 9 9 3 3 14 15 18 20 15 15 11 357 358 359 1 2 1 357 353 349 330 154
331 336 336 336 341 350 333 331 333 335 334 336 341 346 347 348 5 15 23 30 34 16 4 2 8 18 17 17 19 18 17 15 5 5 6 6 3 358 351 349 354 6 31
334 334 329 333 335 336 329 330 333 336 335 342 344 346 345 348 352 17 23 25 28 26 8 17 19 21 18 14 15 18 16 12 9 8 6 2 356 352 352 356 1 13 39
332 328 328 333 334 331 335 338 337 335 336 339 341 339 332 335 334 354 3 20 25 25 12 10 17 18 20 16 15 13 12 13 14 7 1 356 356 1 8 7 9 11 37
327 324 327 337 330 329 337 335 339 327 349 350 329 319 328 325 348 8 15 13 16 25 18 10 11 12 13 12 11 11 10 11 11 7 5 3 4 7 10 10 17 26 43
330 327 320 325 331 333 327 330 343 350 351 352 350 349 340 345 352 0 6 9 15 22 24 9 10 10 11 10 9 8 9 11 8 7 9 7 8 9 11 14 21 30 40
324 320 314 330 328 329 331 331 330 334 342 347 348 345 344 345 347 346 352 1 2 11 16 352 353 356 358 360 0 1 2 2 4 8 12 10 10 13 15 19 21 27 34
321 321 328 312 314 316 317 318 321 325 328 328 335 336 336 337 340 338 339 349 341 347 325 320 324 332 338 345 350 354 354 358 4 7 10 11 13 17 20 21 24 30 32
322 314 311 311 314 315 316 319 323 325 326 324 323 327 330 326 327 330 335 324 297 296 294 295 295 304 314 326 335 342 349 355 360 2 8 9 12 19 24 23 27 32 38
314 332 340 331 322 322 321 326 330 330 329 328 328 324 319 317 319 318 314 294 285 280 277 275 275 276 283 294 309 326 341 351 356 0 2 6 9 18 23 26 28 32 35
309 322 341 337 319 315 317 326 327 328 329 330 328 329 343 344 327 316 309 297 284 277 271 266 261 260 257 254 260 282 306 325 341 349 356 4 10 17 18 26 30 35 39
310 312 316 317 319 323 337 332 328 329 331 331 331 334 344 345 328 322 315 305 290 275 264 258 252 243 233 228 226 232 246 265 282 312 340 359 14 20 23 27 31 35 41
319 321 324 325 323 339 344 331 334 334 333 331 333 338 341 340 338 335 329 321 309 292 273 257 251 246 234 224 216 210 214 223 220 207 213 308 17 29 37 38 35 38 41
321 324 329 332 336 338 335 336 337 337 336 335 338 339 338 336 334 334 332 327 322 310 290 267 251 245 238 229 219 210 207 209 200 196 193 188 187 111 75 64 55 50 46
310 319 326 329 335 336 334 335 336 337 336 336 338 337 335 334 332 331 328 327 325 320 309 290 264 249 243 233 221 211 218 221 215 194 181 178 180 177 162 136 113 89 76
278 307 315 319 325 329 330 331 332 332 332 333 333 331 331 331 329 327 326 326 326 323 318 308 281 262 249 236 224 219 222 222 219 210 179 171 176 180 175 171 168 149 127